Weather History for Farnborough, United Kingdom

Change the Weather History Date:

Monday, February 18, 2013

  Actual Average (EGLL) Record (EGLL)
Temperature  
Mean Temperature 38 °F -  
Max Temperature 48 °F 47 °F 53 °F (1998)
Min Temperature 28 °F 36 °F 26 °F (2003)
Degree Days  
Heating Degree Days 27    
Moisture  
Dew Point 31 °F    
Average Humidity 77    
Maximum Humidity 100    
Minimum Humidity 42    
Precipitation  
Precipitation 0.00 in - - ()
Sea Level Pressure  
Sea Level Pressure 30.11 in    
Wind  
Wind Speed 6 mph ()    
Max Wind Speed 14 mph    
Max Gust Speed -    
Visibility 5.7 miles    
Events      
Averages and records for this station are not official NWS values.
T = Trace of Precipitation, MM = Missing Value Source: Averaged Metar Reports

Daily Weather History Graph

Daily Weather History Graph

Search for Another Location

Airport:

Trip Planner

Search our weather history database for the weather conditions in past years. The results will help you decide how hot, cold, wet, or windy it might be!

Date:

Astronomy

Feb. 18, 2013 Rise Set
Actual Time 7:10 AM GMT 5:24 PM GMT
Civil Twilight 6:36 AM GMT 5:58 PM GMT
Nautical Twilight 5:57 AM GMT 6:37 PM GMT
Astronomical Twilight 5:19 AM GMT 7:15 PM GMT
Moon 10:40 AM GMT (2/18) 1:55 AM GMT (2/18)
Length of Visible Light 11h 22m
Length of Day
10h 13m
First Quarter, 56% of the Moon is Illuminated
Feb 18
First Quarter
Feb 25
Full
Mar 4
Last Quarter
Mar 11
New
Mar 19
First Quarter

Hourly Weather History & Observations

Time (GMT) Temp. Windchill Dew Point Humidity Pressure Visibility Wind Dir Wind Speed Gust Speed Precip Events Conditions
2:50 AM 33 °F - 32 °F 95% 30.11 in 2 mi East 3.5 mph - -   Mostly Cloudy
5:50 AM 29 °F - 28 °F 97% 30.12 in 2 mi ESE 5.8 mph - -  
6:50 AM 30.2 °F - 30.2 °F 100% 30.09 in 1.1 mi East 2.3 mph - N/A   Partly Cloudy
7:20 AM 30.2 °F 23.4 °F 30.2 °F 100% 30.09 in 1.8 mi ENE 6.9 mph - N/A   Partly Cloudy
7:50 AM 32.0 °F 25.6 °F 32.0 °F 100% 30.12 in - ENE 6.9 mph - N/A   Mist
8:20 AM 32.0 °F 26.4 °F 32.0 °F 100% 30.12 in 1.9 mi ENE 5.8 mph - N/A   Mist
8:50 AM 35 °F - 34 °F 93% 30.14 in 3 mi East 6.9 mph - -  
8:50 AM 33.8 °F 27.7 °F 33.8 °F 100% 30.12 in - East 6.9 mph - N/A   Mist
9:20 AM 35.6 °F 29.9 °F 33.8 °F 93% 30.12 in 3.1 mi East 6.9 mph - N/A   Haze
9:50 AM 37.4 °F 31.4 °F 35.6 °F 93% 30.12 in 3.7 mi East 8.1 mph - N/A   Partly Cloudy
10:20 AM 39.2 °F 33.0 °F 35.6 °F 87% 30.12 in 4.3 mi East 9.2 mph - N/A   Partly Cloudy
10:50 AM 41.0 °F 36.4 °F 35.6 °F 81% 30.12 in 6.2 mi East 6.9 mph - N/A   Partly Cloudy
11:20 AM 42.8 °F 37.0 °F 35.6 °F 76% 30.12 in 6.2 mi East 10.4 mph - N/A   Partly Cloudy
11:50 AM 44 °F - 34 °F 58% 30.13 in 11 mi SE 12.7 mph - -   Scattered Clouds
11:50 AM 42.8 °F 35.8 °F 33.8 °F 70% 30.12 in 6.2 mi SE 13.8 mph - N/A   Partly Cloudy
12:20 PM 44.6 °F 39.2 °F 35.6 °F 71% 30.12 in 6.2 mi SE 10.4 mph - N/A   Partly Cloudy
12:50 PM 44.6 °F 39.2 °F 33.8 °F 66% 30.12 in 6.2 mi ESE 10.4 mph - N/A   Partly Cloudy
1:20 PM 46.4 °F 41.9 °F 33.8 °F 62% 30.09 in 6.2 mi SE 9.2 mph - N/A   Partly Cloudy
1:50 PM 46.4 °F 41.9 °F 33.8 °F 62% 30.09 in 6.2 mi SE 9.2 mph - N/A   Partly Cloudy
2:20 PM 46.4 °F 41.1 °F 33.8 °F 62% 30.09 in 6.2 mi ESE 11.5 mph - N/A   Partly Cloudy
2:50 PM 47 °F - 31 °F 42% 30.10 in 15 mi SE 9.2 mph - -  
2:50 PM 46.4 °F 41.5 °F 32.0 °F 57% 30.09 in - SE 10.4 mph - N/A   Clear
3:20 PM 46.4 °F 41.9 °F 32.0 °F 57% 30.09 in - SE 9.2 mph - N/A   Clear
3:50 PM 46.4 °F 41.9 °F 32.0 °F 57% 30.09 in - ESE 9.2 mph - N/A   Clear
4:20 PM 46.4 °F 42.4 °F 32.0 °F 57% 30.09 in - SE 8.1 mph - N/A   Clear
4:50 PM 44.6 °F 40.2 °F 30.2 °F 57% 30.09 in - SE 8.1 mph - N/A   Clear
5:20 PM 41.0 °F 36.4 °F 30.2 °F 65% 30.09 in - SE 6.9 mph - N/A   Clear
5:50 PM 41 °F - 30 °F 54% 30.12 in 12 mi SE 3.5 mph - -  
5:50 PM 37.4 °F 33.8 °F 30.2 °F 75% 30.09 in - ESE 4.6 mph - N/A   Clear
6:20 PM 39.2 °F 35.0 °F 30.2 °F 70% 30.12 in - ESE 5.8 mph - N/A   Clear
6:50 PM 35.6 °F - 30.2 °F 81% 30.12 in - ESE 2.3 mph - N/A   Clear
7:20 PM 33.8 °F 30.8 °F 28.4 °F 81% 30.12 in - Variable 3.5 mph - N/A   Clear
7:50 PM 32.0 °F - 30.2 °F 93% 30.12 in - SW 2.3 mph - N/A   Clear
8:20 PM 30.2 °F - 10.4 °F 44% 30.12 in - South 1.2 mph - N/A   Clear
8:50 PM 30 °F - 27 °F 82% 30.16 in 11 mi West 1.2 mph - -  
8:50 PM 30.2 °F 26.7 °F 28.4 °F 93% 30.15 in - SW 3.5 mph - N/A   Clear
9:20 PM 28.4 °F - 26.6 °F 93% 30.15 in - SSW 2.3 mph - N/A   Clear
11:50 PM 28 °F - 26 °F 89% 30.15 in 5 mi SE 1.2 mph - -